Погода в Орехове

Россия / Костромская область     58°27′17″N   42°00′11″E
темп.,
°C
ветер,
м/с
пор.,
м/с
влажн.,
%
обл.,
%
осадки,
мм/ч
давл.,
гПа
погр.,
м
6 марта, сб
сб600:00−15з229769 0.0 101122
03:00−17з129867 0.0 101320
06:00−18зсз229966 0.0 101320
09:00−15з249677 0.1 1014196
12:00−10зсз248798 0.0 1014615
15:00−9зсз358499 0.1 1013781
18:00−13зюз2292100 0.1 101220
21:00−16юз229661 0.1 101120
7 марта, вс
вс700:00−17ю239919 0.0 100929
03:00−16ю389754 0.1 1007166
06:00−13ююв4139294 0.0 1002362
09:00−10ю6129297 0.1 998647
12:00−8ююв61192100 0.8 994832
15:00−7ююв61193100 2.0 991866
18:00−7юв51194100 1.1 988719
21:00−7ююз2696100 2.4 987414
8 марта, пн
пн800:00−9юз3895100 1.1 987525
03:00−11юз2796100 1.6 989283
06:00−12зсз1197100 0.3 99021
09:00−10ссв4890100 0.4 993598
12:00−10с4789100 0.1 996734
15:00−10с4887100 0.3 1000839
18:00−12с4991100 0.1 1003531
21:00−16с31093100 0.1 1007401
9 марта, вт
вт900:00−20ссз389793 0.0 1009192
03:00−23ссз379880 0.0 1011148
06:00−26ссз249818 0.0 101386
09:00−24ссз259511 0.0 1014244
12:00−19ссз349262 0.0 1015404
15:00−17ссз368982 0.0 1017602
18:00−21ссз2596100 0.0 1018109
21:00−24с259794 0.1 1020115
10 марта, ср
ср1000:00−28с23971 0.0 102248
03:00−30с23971 0.0 102335
06:00−31с23970 0.0 102429
09:00−26ссз24950 0.0 1025212
12:00−19зсз24850 0.0 1025373
15:00−15зсз378310 0.0 1024512
18:00−16зсз398954 0.0 1024442
21:00−19зсз3109677 0.0 1025276